Voltar ao catálogo

STARLINK-3826

AtivoComunicaçõesVLEO
NORAD 52347·PAYLOAD·🇺🇸 United States

Lançado Apr 29, 2022 de Cape Canaveral Space Force Station

Loading…

Próximas Passagens (próximas 24 horas)

TLE

AtualizadoSource: CelesTrak SupGP

Época: Sep 15, 2026, 01:17 UTC

1 52347C 22045S   26258.05395833 -.00045220  00000+0 -13722-2 0  2582
2 52347  53.1579  55.3418 0001261  76.2262 264.3532 15.33569951    17

Acompanhe STARLINK-3826 em tempo real com AllMySat

Download on the App Store